CXA9527 RKSI-ZSPD

Flight info

Callsign CXA9527
Flight time N/A
Altitude 35100
Route BOPTA Z51 BEDES Y711 PONIK A593 DUMET
Aircraft A320/M-SDE2E3FGHIJ1RWXY/M

Departure

Time N/A
Airport Incheon International Airport (RKSI)

Arrival

Time 2026-05-05 14:19
Airport Shanghai Pudong International Airport (ZSPD)
Time Latitude Longitude Altitude Speed Heading
2026-05-05 14:07 31.34749 122.75230 6813 ft 374 kts 242°
2026-05-05 14:07 31.34038 122.72285 6824 ft 374 kts 264°
2026-05-05 14:07 31.33833 122.69257 6826 ft 374 kts 265°
2026-05-05 14:08 31.33576 122.66233 6824 ft 374 kts 263°
2026-05-05 14:08 31.33207 122.63229 6824 ft 374 kts 261°
2026-05-05 14:08 31.32820 122.60221 6823 ft 374 kts 264°
2026-05-05 14:08 31.32418 122.57249 6823 ft 374 kts 258°
2026-05-05 14:09 31.21122 121.98025 6821 ft 374 kts 256°
2026-05-05 14:09 31.20498 121.95087 6822 ft 374 kts 256°
2026-05-05 14:09 31.19969 121.92078 6380 ft 375 kts 265°
2026-05-05 14:10 31.20309 121.89088 5650 ft 376 kts 290°
2026-05-05 14:10 31.21544 121.86430 4992 ft 374 kts 305°
2026-05-05 14:10 31.23440 121.84388 4340 ft 366 kts 329°
2026-05-05 14:10 31.25747 121.83345 3638 ft 357 kts 349°
2026-05-05 14:11 31.28188 121.83250 3135 ft 343 kts
2026-05-05 14:11 31.30497 121.83617 2953 ft 321 kts
2026-05-05 14:11 31.32617 121.83987 2945 ft 297 kts
2026-05-05 14:11 31.34589 121.84271 2939 ft 276 kts
2026-05-05 14:12 31.36374 121.83729 2930 ft 261 kts 326°
2026-05-05 14:12 31.37443 121.82307 2935 ft 254 kts 294°
2026-05-05 14:12 31.37620 121.80352 2932 ft 235 kts 255°
2026-05-05 14:12 31.36776 121.78860 2933 ft 217 kts 216°
2026-05-05 14:13 31.35528 121.77966 2940 ft 201 kts 216°
2026-05-05 14:13 31.34560 121.76873 2937 ft 186 kts 230°
2026-05-05 14:13 31.33772 121.75762 2985 ft 168 kts 229°
2026-05-05 14:13 31.32856 121.75096 2973 ft 149 kts 189°
2026-05-05 14:14 31.31880 121.75176 2942 ft 137 kts 167°
2026-05-05 14:14 31.30970 121.75476 2950 ft 132 kts 162°
2026-05-05 14:14 31.30105 121.75806 2910 ft 132 kts 161°
2026-05-05 14:14 31.29227 121.76146 2736 ft 131 kts 161°
2026-05-05 14:15 31.28365 121.76476 2564 ft 130 kts 162°
2026-05-05 14:15 31.27502 121.76805 2393 ft 130 kts 161°
2026-05-05 14:15 31.26648 121.77179 2217 ft 130 kts 148°
2026-05-05 14:15 31.26148 121.78023 2043 ft 129 kts 110°
2026-05-05 14:16 31.25719 121.78928 1860 ft 129 kts 143°
2026-05-05 14:16 31.24865 121.79115 1695 ft 129 kts 184°
2026-05-05 14:16 31.23960 121.79092 1528 ft 129 kts 177°
2026-05-05 14:16 31.23071 121.79211 1358 ft 128 kts 171°
2026-05-05 14:17 31.22198 121.79419 1187 ft 128 kts 168°
2026-05-05 14:17 31.21329 121.79652 1177 ft 131 kts 166°
2026-05-05 14:17 31.20437 121.79948 1484 ft 132 kts 163°
2026-05-05 14:17 31.19566 121.80284 1272 ft 131 kts 161°
2026-05-05 14:18 31.18708 121.80637 923 ft 130 kts 162°
2026-05-05 14:18 31.17836 121.80926 553 ft 132 kts 163°
2026-05-05 14:18 31.16964 121.81255 243 ft 128 kts 161°
2026-05-05 14:18 31.16135 121.81576 68 ft 125 kts 162°
2026-05-05 14:19 31.15409 121.81848 22 ft 77 kts 161°
2026-05-05 14:19 31.15053 121.81974 22 ft 46 kts 163°
2026-05-05 14:19 31.14761 121.82082 22 ft 42 kts 162°
2026-05-05 14:19 31.14483 121.82174 22 ft 39 kts 177°
2026-05-05 14:20 31.14284 121.82153 22 ft 20 kts 189°
2026-05-05 14:20 31.14139 121.82128 22 ft 21 kts 188°
2026-05-05 14:20 31.13998 121.82167 22 ft 21 kts 159°
2026-05-05 14:20 31.13857 121.82218 22 ft 21 kts 163°
2026-05-05 14:21 31.13723 121.82265 22 ft 12 kts 163°
2026-05-05 14:21 31.13654 121.82215 22 ft 14 kts 250°
2026-05-05 14:21 31.13622 121.82100 22 ft 15 kts 253°
2026-05-05 14:21 31.13591 121.81978 22 ft 16 kts 252°
2026-05-05 14:22 31.13568 121.81896 22 ft 2 kts 252°
2026-05-05 14:22 31.13560 121.81870 22 ft 4 kts 252°
2026-05-05 14:22 31.13553 121.81844 22 ft 0 kts 252°
2026-05-05 14:22 31.13548 121.81827 22 ft 3 kts 252°
2026-05-05 14:23 31.13538 121.81792 22 ft 5 kts 252°
2026-05-05 14:23 31.13523 121.81739 22 ft 8 kts 252°
2026-05-05 14:23 31.13503 121.81670 22 ft 10 kts 252°
2026-05-05 14:23 31.13480 121.81584 22 ft 11 kts 254°
2026-05-05 14:24 31.13443 121.81509 22 ft 5 kts 243°
2026-05-05 14:24 31.13443 121.81465 22 ft 1 kts 278°
2026-05-05 14:24 31.13443 121.81461 22 ft 0 kts 270°